Change the Weather History Date:

Wednesday, January 2, 2013

  Actual Average Record
Temperature  
Mean Temperature 46 °F -  
Max Temperature 53 °F 43 °F 53 °F (2013)
Min Temperature 39 °F 32 °F 17 °F (2002)
Degree Days  
Heating Degree Days 19    
Moisture  
Dew Point 42 °F    
Average Humidity 78    
Maximum Humidity 88    
Minimum Humidity 65    
Precipitation  
Precipitation 0.16 in 0.07 in - ()
Sea Level Pressure  
Sea Level Pressure 29.81 in    
Wind  
Wind Speed 11 mph ()    
Max Wind Speed 25 mph    
Max Gust Speed 37 mph    
Visibility 7.0 miles    
Events Rain    
Averages and records for this station are not official NWS values.
T = Trace of Precipitation, MM = Missing Value Source: Averaged Metar Reports

Daily Weather History Graph

Daily Weather History Graph

Search for Another Location

Airport or City:

Trip Planner

Search our weather history database for the weather conditions in past years. The results will help you decide how hot, cold, wet, or windy it might be!

Date:

Astronomy

Jan. 02, 2013 Rise Set
Actual Time 8:56 AM GMT 3:40 PM GMT
Civil Twilight 8:06 AM GMT 4:30 PM GMT
Nautical Twilight 7:14 AM GMT 5:22 PM GMT
Astronomical Twilight 6:27 AM GMT 6:09 PM GMT
Moon 10:14 PM GMT (1/2) 10:21 AM GMT (1/2)
Length of Visible Light 8h 24m
Length of Day
6h 43m
Waning Gibbous, 77% of the Moon is Illuminated
Jan 2
Waning Gibbous
Jan 5
Last Quarter
Jan 11
New
Jan 18
First Quarter
Jan 27
Full

Hourly Weather History & Observations

Time (GMT) Temp. Windchill Dew Point Humidity Pressure Visibility Wind Dir Wind Speed Gust Speed Precip Events Conditions
12:50 AM 39.2 °F 34.2 °F 33.8 °F 81% 29.86 in 6.2 mi SW 6.9 mph - N/A   Mostly Cloudy
1:50 AM 41.0 °F 35.8 °F 33.8 °F 76% 29.86 in 6.2 mi SSW 8.1 mph - N/A   Mostly Cloudy
2:50 AM 41 °F - 34 °F 67% 29.89 in 47 mi South 5.8 mph - -   Overcast
2:50 AM 41.0 °F 37.1 °F 33.8 °F 76% 29.89 in 6.2 mi South 5.8 mph - N/A   Overcast
3:50 AM 41.0 °F 35.8 °F 33.8 °F 76% 29.86 in 6.2 mi SSW 8.1 mph - N/A   Overcast
4:50 AM 41.0 °F 37.1 °F 33.8 °F 76% 29.86 in 6.2 mi South 5.8 mph - N/A   Mostly Cloudy
5:50 AM 41 °F - 36 °F 77% 29.88 in 11 mi SSW 5.8 mph - - Rain Light Rain
5:50 AM 41.0 °F 37.1 °F 35.6 °F 81% 29.86 in 6.2 mi SSW 5.8 mph - N/A Rain Light Rain
6:50 AM 41.0 °F 34.7 °F 37.4 °F 87% 29.83 in 6.2 mi South 10.4 mph - N/A Rain Rain
7:50 AM 41.0 °F 35.8 °F 37.4 °F 87% 29.83 in 6.2 mi SSW 8.1 mph - N/A Rain Rain
8:50 AM 42 °F - 38 °F 82% 29.81 in 18 mi SW 10.4 mph - - Rain Light Rain
8:50 AM 42.8 °F 37.0 °F 39.2 °F 87% 29.80 in 6.2 mi SW 10.4 mph - N/A Rain Light Rain
9:50 AM 44.6 °F 39.2 °F 39.2 °F 81% 29.77 in 6.2 mi SSW 10.4 mph - N/A   Mostly Cloudy
10:50 AM 46.4 °F 42.9 °F 41.0 °F 81% 29.77 in 6.2 mi South 6.9 mph - N/A   Overcast
11:50 AM 51 °F - 45 °F 72% 29.76 in 47 mi SW 13.8 mph - -   Scattered Clouds
11:50 AM 51.8 °F - 44.6 °F 76% 29.74 in 6.2 mi SW 13.8 mph - N/A   Mostly Cloudy
12:50 PM 51.8 °F - 46.4 °F 82% 29.74 in 6.2 mi WSW 12.7 mph - N/A   Mostly Cloudy
1:50 PM 53.6 °F - 46.4 °F 77% 29.74 in 6.2 mi SW 15.0 mph - N/A   Mostly Cloudy
2:50 PM 53 °F - 47 °F 73% 29.75 in 47 mi SW 21.9 mph - -   Partly Cloudy
3:50 PM 53.6 °F - 48.2 °F 82% 29.77 in 6.2 mi SW 18.4 mph - N/A   Mostly Cloudy
4:50 PM 53.6 °F - 48.2 °F 82% 29.77 in - SW 23.0 mph - N/A   Mostly Cloudy
5:50 PM 54 °F - 47 °F 70% 29.79 in 47 mi SW 20.7 mph - -   Partly Cloudy
5:50 PM 53.6 °F - 46.4 °F 77% 29.77 in 6.2 mi SW 20.7 mph - N/A   Scattered Clouds
6:50 PM 53.6 °F - 46.4 °F 77% 29.77 in 6.2 mi SW 19.6 mph - N/A   Scattered Clouds
7:50 PM 51.8 °F - 48.2 °F 88% 29.80 in - SW 16.1 mph - N/A   Mostly Cloudy
8:50 PM 53 °F - 47 °F 73% 29.81 in 47 mi SW 24.2 mph - -  
8:50 PM 51.8 °F - 46.4 °F 82% 29.80 in 6.2 mi SW 24.2 mph - N/A   Unknown
9:50 PM 53.6 °F - 46.4 °F 77% 29.80 in - WSW 24.2 mph 36.8 mph N/A   Unknown
10:50 PM 51.8 °F - 46.4 °F 82% 29.83 in 6.2 mi SW 25.3 mph - N/A   Unknown
11:50 PM 53 °F - 45 °F 65% 29.86 in 44 mi WSW 20.7 mph - -   Partly Cloudy
11:50 PM 51.8 °F - 44.6 °F 76% 29.86 in 6.2 mi WSW 20.7 mph - N/A   Scattered Clouds